THORAD AGENA D DEB, 4607

Orbit data source: Space-Track

THORAD AGENA D DEB, 4607 is space debris in SSO originally from a launch on Wed, 08 Apr 1970 UTC launched from the Air Force Western Test Range (AFWTR). Debris objects in space refer to the collection of defunct objects orbiting the Earth. Examples of debris include non-operational satellites, rocket bodies, and fragments generated from explosions, collisions, or faulty payload assembly.

Loading next visibility...
Identifier
4607, 1970-025K
Orbit
SSO
Country
Flag of USUS
Related business
Manufacturer
Unknown
Mission
Spacecraft
Bus & Motor
Unknown
Mass
Unknown
Launch date (UTC)
1970-04-08 (56 years ago)
Launch vehicle
Unknown
Launch site
Air Force Western Test Range (AFWTR)
Object type
Payload
Rocket body
Debris
Shape & HBR
Unknown shape, 0.3 m
Radar Cross Section
Medium (>0.1 m² and <1 m²)

Expand to show TLE details & history
Last TLE update: 14 hours ago

TLE from 14 hours ago
0 THORAD AGENA D DEB
1  4607U 70025K   25353.47515132  .00000029  00000-0  27345-3 0  9992
2  4607 100.2065 288.5419 0611964 164.9084 317.7676 12.31140975499179
Epoch: 2025-12-19T11:24Z
TLE epoch observation values (Epoch: 2025-12-19T11:24:13.074Z)
Latitude
60.72447°
Longitude
-132.19444°
Altitude
1,209.921 km
Speed
7.411 km/s
True Right ascension
08h 28m 42s
True Declination
60° 35' 11"
Sunlit
Object was in full shadow at epoch
Visualization orbit readout
Latitude
Unknown
Longitude
Unknown
Altitude
Unknown
Speed
Unknown
Apparent Right ascension
Unknown
Apparent Declination
Unknown
Sunlit
N/A
Visualization observer readout
Local Sidereal Time
00:14:24
Azimuth
Unknown
Elevation
Unknown
Doppler factor
Unknown
Orbital elements
Apogee altitude
2,026.531 km
Perigee altitude
1,057.181 km
Semi-major axis
7,919.993 km
Eccentricity
0.0612
Inclination
100.2065°
RAAN
288.5419°
Arg. of periapsis
164.9084°
True anomaly
312.77826°
Mean anomaly
317.7676°
Eccentric anomaly
315.30135°
Mean motion
3.07933 °/min
Orbital period
116.91 mins
BSTAR
0.00027345
Loading maneuver chart data...
Computing Atmospheric mass density...

Documentation

Showing up to 5 results
|